Regional Weather Roundup
Issued by NWS Portland, ME

Current Version | Previous Version | Text Only | Print | Product List | Glossary Off
Versions: 1 2 3 4 5 6 7 8 9 10 11 12 13 14 15 16 17 18 19 20 21 22 23 24 25 26 27 28 29 30 31 32 33 34 35 36 37 38 39 40 41 42 43 44 45 46 47 48 49 50
000 ASUS41 KGYX 200410 RWRGYX WEATHER ROUNDUP FOR MAINE AND NEW HAMPSHIRE NATIONAL WEATHER SERVICE GRAY ME 1200 AM EDT MON AUG 20 2018 MEZ002-005-006-010-012-015-018-020-021-024-026-027-029-200500- MAINE CITY SKY/WX TMP DP RH WIND PRES REMARKS PORTLAND FAIR 62 60 93 N6 30.15R SANFORD FAIR 56 56 100 CALM 30.15F BAR HARBOR FAIR 60 58 92 N5 30.16R WISCASSET FAIR 60 59 96 CALM 30.17R ROCKLAND FAIR 58 57 97 CALM 30.15R FRYEBURG FAIR 55 55 100 CALM 30.17S LEWISTONAUBURN FAIR 60 59 96 CALM 30.16S AUGUSTA MOCLDY 62 59 90 CALM 30.17R WATERVILLE FAIR 61 57 87 CALM 30.15R BANGOR MOCLDY 61 58 90 CALM 30.17R GREENVILLE NOT AVBL MILLINOCKET FAIR 55 52 89 CALM 30.19S HOULTON FAIR 60 53 77 SE9 30.18R PRESQUE ISLE FAIR 53 52 96 NW5 30.19S FRENCHVILLE FAIR 62 52 69 S6 30.18S CARIBOU FAIR 59 54 83 SE3 30.18S $$ NHZ002-005-008-009-011-012-014-200500- NEW HAMPSHIRE CITY SKY/WX TMP DP RH WIND PRES REMARKS PORTSMOUTH MOCLDY 64 59 82 NE5 30.12S ROCHESTER FAIR 60 59 96 NW5 30.14S NASHUA MOCLDY 62 61 96 NW5 30.14R MANCHESTER CLOUDY 67 59 75 N7 30.12S CONCORD CLOUDY 61 59 93 CALM 30.15S LACONIA FAIR 59 58 96 CALM 30.16F PLYMOUTH FAIR 58 56 95 CALM 30.16R FOG BERLIN FAIR 52 52 100 CALM 30.19R WHITEFIELD FAIR 53 51 93 CALM 30.17R JAFFREY FAIR 60 59 96 CALM 30.16F KEENE FAIR N/A N/A N/A CALM 30.15S LEBANON FAIR 60 57 89 CALM 30.15S MT WASHINGTON PTCLDY 43 42 98 E8 N/A $$ VTZ005-007-008-200500- VERMONT CITY SKY/WX TMP DP RH WIND PRES REMARKS ST JOHNSBURY N/A 61 60 97 MISG 30.14R MONTPELIER FAIR 64 59 83 S6 30.19R BURLINGTON FAIR 65 60 84 CALM 30.10S $$ MAZ007-012-024-CTZ003-RIZ002-NYZ038-NYZ072-200500- SOUTHERN NEW ENGLAND AND NY CITY SKY/WX TMP DP RH WIND PRES REMARKS BOSTON CLOUDY 68 65 90 NE14 30.10S WORCESTER CLOUDY 61 58 90 N6 30.14R NANTUCKET CLOUDY 66 66 100 NE8 30.03S FOG PROVIDENCE CLOUDY 67 62 84 NE10 30.09S HARTFORD MOCLDY 65 59 81 N3 30.13R ALBANY MOCLDY 71 55 56 S8 30.12R NEW YORK CITY CLOUDY 72 58 61 E12 30.08S $$ ANZ081-ANZ082-ANZ150-NHZ014-MEZ023>029-200500- COASTAL MARINE OBSERVATIONS STATION/POSITION TIME TEMP WIND PRES WAVE AIR SEA DIR/SP/G HT/PER (UTC) (F) (DEG/KT/KT) (MB) (FT/S) MOUNT DESERT ROC 0400 59 10/ 11/ 12 1020.5R MATINICUS ROCK 0300 61 60/ 15/ 16 1019.8F ISLE OF SHOALS 0300 66 70/ 15/ 18 1019.1F JEFFREYS LEDGE 0336 69 N/A 4/ 7 $$ .............KEY.............. WCI - WIND CHILL TC - TEMPERATURE IN CELSIUS VSB - VISIBILITY IN MILES HX - HEAT INDEX FAIR- INDICATES FEW OR NO CLOUDS BELOW 12,000 FT, WITH NO SIGNIFICANT WEATHER AND/OR OBSTRUCTIONS TO VISIBILITY.

USA.gov is the U.S. government's official web portal to all federal, state and local government web resources and services.